Juneau, WI

2:20 PM CST on January 19, 2018 (GMT -0600)
Dodge County

Weather History for KUNU - April, 2014

Change the Weather History Date:

Wednesday, April 2, 2014

  Actual Average Record
Temperature  
Mean Temperature 38 °F -  
Max Temperature 48 °F 47 °F 73 °F (1999)
Min Temperature 27 °F 31 °F 16 °F (1987)
Degree Days  
Heating Degree Days 28    
Moisture  
Dew Point 20 °F    
Average Humidity 57    
Maximum Humidity 86    
Minimum Humidity 31    
Precipitation  
Precipitation 0.00 in - - ()
Sea Level Pressure  
Sea Level Pressure 30.14 in    
Wind  
Wind Speed 5 mph (NNE)    
Max Wind Speed 14 mph    
Max Gust Speed 17 mph    
Visibility 10 miles    
Events      
Averages and records for this station are not official NWS values.
T = Trace of Precipitation, MM = Missing Value Source: NWS Daily Summary

Daily Weather History Graph

Daily Weather History Graph

Search for Another Location

Airport or City:

Trip Planner

Search our weather history database for the weather conditions in past years. The results will help you decide how hot, cold, wet, or windy it might be!

Date:

Astronomy

Apr. 02, 2014 Rise Set
Actual Time 6:34 AM CDT 7:22 PM CDT
Civil Twilight 6:05 AM CDT 7:51 PM CDT
Nautical Twilight 5:31 AM CDT 8:26 PM CDT
Astronomical Twilight 4:55 AM CDT 9:01 PM CDT
Moon 8:14 AM CDT (4/2) 10:51 PM CDT (4/2)
Length of Visible Light 13h 45m
Length of Day
12h 47m
Waxing Crescent, 10% of the Moon is Illuminated
Apr 2
Waxing Crescent
Apr 7
First Quarter
Apr 15
Full
Apr 22
Last Quarter
Apr 29
New

Hourly Weather History & Observations

Time (CDT) Temp. Windchill Dew Point Humidity Pressure Visibility Wind Dir Wind Speed Gust Speed Precip Events Conditions
12:15 AM 31.6 °F 27.0 °F 23.0 °F 70% 30.09 in 10.0 mi West 4.6 mph - N/A   Clear
12:35 AM 31.8 °F - 23.0 °F 70% 30.09 in 10.0 mi Calm Calm - N/A   Clear
12:55 AM 30.9 °F 27.5 °F 23.0 °F 72% 30.09 in 10.0 mi WNW 3.5 mph - N/A   Clear
1:15 AM 30.7 °F - 22.8 °F 72% 30.10 in 10.0 mi Calm Calm - N/A   Clear
1:35 AM 30.2 °F 26.7 °F 22.6 °F 73% 30.10 in 10.0 mi West 3.5 mph - N/A   Clear
1:55 AM 29.3 °F 25.6 °F 23.2 °F 78% 30.11 in 10.0 mi WSW 3.5 mph - N/A   Clear
2:15 AM 29.7 °F - 23.0 °F 76% 30.11 in 10.0 mi Calm Calm - N/A   Clear
2:35 AM 29.3 °F - 23.0 °F 77% 30.11 in 10.0 mi Calm Calm - N/A   Clear
2:55 AM 28.9 °F - 23.0 °F 78% 30.11 in 10.0 mi Calm Calm - N/A   Clear
3:15 AM 28.8 °F - 23.0 °F 79% 30.11 in 10.0 mi Calm Calm - N/A   Clear
3:35 AM 28.2 °F 24.4 °F 23.0 °F 81% 30.10 in 10.0 mi WNW 3.5 mph - N/A   Clear
3:55 AM 28.0 °F 22.8 °F 23.0 °F 81% 30.10 in 10.0 mi NW 4.6 mph - N/A   Clear
4:15 AM 28.2 °F 22.0 °F 23.0 °F 81% 30.10 in 10.0 mi NW 5.8 mph - N/A   Clear
4:35 AM 28.0 °F 20.8 °F 23.0 °F 81% 30.10 in 10.0 mi NW 6.9 mph - N/A   Clear
4:55 AM 27.9 °F 22.6 °F 23.0 °F 82% 30.09 in 10.0 mi NW 4.6 mph - N/A   Clear
5:15 AM 27.5 °F 22.2 °F 23.0 °F 83% 30.09 in 10.0 mi NW 4.6 mph - N/A   Clear
5:35 AM 27.1 °F 20.7 °F 22.8 °F 84% 30.10 in 10.0 mi NNW 5.8 mph - N/A   Clear
5:55 AM 27.1 °F 18.9 °F 23.4 °F 86% 30.10 in 10.0 mi NNW 8.1 mph - N/A   Clear
6:15 AM 27.3 °F 18.4 °F 23.0 °F 84% 30.10 in 10.0 mi NNW 9.2 mph - N/A   Clear
7:35 AM 27.5 °F 22.2 °F 22.1 °F 80% 30.16 in 10.0 mi NW 4.6 mph - N/A   Clear
7:55 AM 28.4 °F 23.3 °F 21.6 °F 76% 30.19 in 10.0 mi NW 4.6 mph - N/A   Clear
8:15 AM 29.1 °F 24.1 °F 21.0 °F 72% 30.18 in 10.0 mi NNW 4.6 mph - N/A   Clear
8:35 AM 30.0 °F 24.1 °F 19.6 °F 65% 30.19 in 10.0 mi NE 5.8 mph - N/A   Clear
8:55 AM 30.0 °F 26.5 °F 19.8 °F 66% 30.19 in 10.0 mi North 3.5 mph - N/A   Clear
9:15 AM 31.1 °F 25.4 °F 20.5 °F 65% 30.19 in 10.0 mi NNW 5.8 mph - N/A   Clear
9:35 AM 31.6 °F 26.0 °F 20.1 °F 62% 30.19 in 10.0 mi North 5.8 mph - N/A   Clear
9:55 AM 32.0 °F - 19.9 °F 61% 30.20 in 10.0 mi Calm Calm - N/A   Clear
10:15 AM 32.5 °F 29.3 °F 20.3 °F 61% 30.19 in 10.0 mi ENE 3.5 mph - N/A   Clear
10:35 AM 33.6 °F 30.6 °F 21.4 °F 61% 30.20 in 10.0 mi NNE 3.5 mph - N/A   Clear
10:55 AM 35.8 °F 30.9 °F 20.3 °F 53% 30.19 in 10.0 mi North 5.8 mph - N/A   Clear
11:35 AM 36.5 °F 31.0 °F 19.6 °F 50% 30.19 in 10.0 mi North 6.9 mph - N/A   Clear
11:55 AM 37.9 °F 32.7 °F 20.5 °F 49% 30.19 in 10.0 mi NNE 6.9 mph - N/A   Clear
12:15 PM 38.7 °F 34.3 °F 19.6 °F 46% 30.19 in 10.0 mi NNE 5.8 mph - N/A   Clear
12:55 PM 41.0 °F 38.0 °F 20.3 °F 44% 30.18 in 10.0 mi NNE 4.6 mph - N/A   Clear
1:15 PM 42.1 °F 37.7 °F 20.3 °F 42% 30.17 in 10.0 mi North 6.9 mph - N/A   Clear
1:35 PM 43.9 °F 39.9 °F 21.7 °F 41% 30.17 in 10.0 mi NNE 6.9 mph - N/A   Clear
1:55 PM 44.1 °F 40.8 °F 20.7 °F 39% 30.17 in 10.0 mi NNE 5.8 mph - N/A   Clear
2:15 PM 44.8 °F 41.0 °F 21.0 °F 39% 30.16 in 10.0 mi NE 6.9 mph - N/A   Clear
2:35 PM 47.1 °F - 21.0 °F 36% 30.15 in 10.0 mi NE 4.6 mph - N/A   Clear
2:55 PM 47.1 °F - 19.8 °F 34% 30.15 in 10.0 mi East 8.1 mph - N/A   Clear
3:15 PM 48.2 °F - 20.8 °F 34% 30.13 in 10.0 mi ENE 8.1 mph - N/A   Clear
3:35 PM 48.2 °F - 20.1 °F 33% 30.13 in 10.0 mi ENE 8.1 mph - N/A   Clear
3:55 PM 46.9 °F - 18.7 °F 33% 30.12 in 10.0 mi NE 6.9 mph - N/A   Clear
4:15 PM 47.5 °F - 18.1 °F 31% 30.12 in 10.0 mi ENE 10.4 mph - N/A   Clear
4:35 PM 46.9 °F - 20.7 °F 35% 30.11 in 10.0 mi East 10.4 mph - N/A   Clear
5:15 PM 46.6 °F - 23.4 °F 40% 30.12 in 10.0 mi ENE 10.4 mph 16.1 mph N/A   Clear
5:35 PM 45.3 °F 39.3 °F 24.8 °F 45% 30.13 in 10.0 mi ENE 12.7 mph - N/A   Clear
5:55 PM 44.1 °F 37.7 °F 23.7 °F 45% 30.13 in 10.0 mi NE 12.7 mph 16.1 mph N/A   Clear
6:15 PM 42.1 °F 34.9 °F 21.7 °F 44% 30.14 in 10.0 mi ENE 13.8 mph - N/A   Clear
6:35 PM 40.3 °F 33.0 °F 20.1 °F 45% 30.14 in 10.0 mi East 12.7 mph - N/A   Clear
6:55 PM 39.0 °F 32.3 °F 19.9 °F 46% 30.14 in 10.0 mi East 10.4 mph - N/A   Clear
7:15 PM 37.9 °F 30.0 °F 18.5 °F 46% 30.15 in 10.0 mi East 12.7 mph - N/A   Clear
7:35 PM 36.9 °F 29.1 °F 16.2 °F 43% 30.15 in 10.0 mi ENE 11.5 mph 17.3 mph N/A   Clear
7:55 PM 35.8 °F 28.3 °F 17.6 °F 48% 30.15 in 10.0 mi East 10.4 mph - N/A   Clear
8:15 PM 35.2 °F 28.1 °F 17.1 °F 48% 30.15 in 10.0 mi East 9.2 mph - N/A   Scattered Clouds
8:35 PM 34.7 °F 25.9 °F 16.3 °F 47% 30.15 in 10.0 mi ENE 12.7 mph 17.3 mph N/A   Scattered Clouds
8:55 PM 34.0 °F 25.0 °F 16.0 °F 48% 30.15 in 10.0 mi ENE 12.7 mph 16.1 mph N/A   Scattered Clouds
9:15 PM 34.2 °F 26.8 °F 16.9 °F 49% 30.15 in 10.0 mi NE 9.2 mph - N/A   Mostly Cloudy
9:35 PM 34.0 °F 25.5 °F 15.6 °F 47% 30.15 in 10.0 mi ENE 11.5 mph - N/A   Overcast
9:55 PM 33.8 °F 25.3 °F 16.5 °F 49% 30.15 in 10.0 mi NE 11.5 mph - N/A   Overcast
10:15 PM 33.8 °F 24.8 °F 16.7 °F 50% 30.13 in 10.0 mi NE 12.7 mph 17.3 mph N/A   Overcast
10:35 PM 33.8 °F 26.4 °F 17.4 °F 51% 30.14 in 10.0 mi NE 9.2 mph - N/A   Overcast
10:55 PM 34.0 °F 26.6 °F 17.4 °F 51% 30.13 in 10.0 mi NE 9.2 mph - N/A   Overcast
11:15 PM 34.2 °F 26.2 °F 16.9 °F 49% 30.13 in 10.0 mi NE 10.4 mph - N/A   Overcast
11:35 PM 34.3 °F 26.5 °F 16.5 °F 48% 30.13 in 10.0 mi ENE 10.4 mph - N/A   Overcast
11:55 PM 34.7 °F 26.4 °F 16.7 °F 48% 30.13 in 10.0 mi ENE 11.5 mph - N/A   Overcast